Hourly Data Report for October 09, 2014

All times are specified in Local Standard Time (LST). Add 1 hour to adjust for Daylight Saving Time where and when it is observed.

FREDERICTON
NEW BRUNSWICK

45°52'08.000" N
66°32'14.000" W
20.70 m
8101505
71700
YFC

Download Data

Hourly Data (October 2014)
Hourly Data Report for October 9, 2014
Temp Definition
°C
Dew Point Temp Definition
°C
Rel Hum Definition
%
Wind Dir Definition
10's deg

Wind Spd Definition
km/h
Visibility Definition
km
Stn Press Definition
kPa
Hmdx Definition


Wind Chill Definition


Weather Definition


TIME
00:00 Legend Double Dagger 9.7 9.4 98 18 9 12.9 100.30     LegendNANA
01:00 Legend Double Dagger 9.7 9.4 98 20 8 16.1 100.31     LegendNANA
02:00 Legend Double Dagger 9.9 9.6 98 22 4 16.1 100.32     LegendNANA
03:00 Legend Double Dagger 9.3 9.2 99 21 5 11.3 100.32     LegendNANA
04:00 Legend Double Dagger 9.5 8.8 95 20 9 16.1 100.35     LegendNANA
05:00 Legend Double Dagger 9.3 8.4 94 23 8 16.1 100.38     LegendNANA
06:00 Legend Double Dagger 8.2 7.7 97 21 8 16.1 100.46     LegendNANA
07:00 Legend Double Dagger 6.9 6.3 96 22 8 16.1 100.51     LegendNANA
08:00 Legend Double Dagger 9.3 6.5 82 24 11 16.1 100.55     LegendNANA
09:00 Legend Double Dagger 11.3 6.7 73 24 17 16.1 100.58     LegendNANA
10:00 Legend Double Dagger 12.7 4.3 56 26 22 16.1 100.61     LegendNANA
11:00 Legend Double Dagger 13.4 3.8 52 24 22 16.1 100.59     LegendNANA
12:00 Legend Double Dagger 12.5 2.6 51 24 28 16.1 100.56     LegendNANA
13:00 Legend Double Dagger 14.3 2.1 43 24 30 16.1 100.54     LegendNANA
14:00 Legend Double Dagger 13.3 2.2 47 26 18 16.1 100.54     LegendNANA
15:00 Legend Double Dagger 13.3 1.2 43 24 18 16.1 100.55     LegendNANA
16:00 Legend Double Dagger 13.3 0.5 41 25 18 16.1 100.56     LegendNANA
17:00 Legend Double Dagger 13.2 0.6 42 24 13 16.1 100.57     LegendNANA
18:00 Legend Double Dagger 9.5 2.7 63 20 5 16.1 100.59     LegendNANA
19:00 Legend Double Dagger 7.2 3.1 75 20 8 16.1 100.61     LegendNANA
20:00 Legend Double Dagger 6.5 3.6 82 18 11 16.1 100.62     LegendNANA
21:00 Legend Double Dagger 6.5 4.2 85 19 13 16.1 100.66     LegendNANA
22:00 Legend Double Dagger 5.1 3.7 91 20 9 16.1 100.66     LegendNANA
23:00 Legend Double Dagger 6.0 3.0 81 24 8 16.1 100.68     LegendNANA

Notes on Data Quality.

Legend

  • E = Estimated
  • M = Missing
  • NA = Not Available
  • ‡ = Partner data that is not subject to review by the National Climate Archives
Date modified: